Simultaneous Nadir Overpasses (SNOs) Predictions

Prediction of SNOs between AQUA and METOP-B Satellite Orbit:

Table of predicted SNOs for the next 14.0 days since TLE Epoch: 4/21/2018
Index Date (AQUA) Time (AQUA) Lat,Lon (AQUA) SZA (AQUA ) Date (METOP-B) Time (METOP-B) Lat,Lon (METOP-B) SZA (METOP-B ) Distance(km) Time Diff (sec)
1 04/21/2018 09:27:02 -73.91,-147.49 118.01 04/21/2018 09:26:05 -73.91,-147.38 118.00 3.24 57
2 04/21/2018 10:16:30 73.93, 20.10 62.01 04/21/2018 10:16:44 73.94, 20.03 62.02 2.51 14
3 04/21/2018 11:06:07 -74.53,-173.64 117.37 04/21/2018 11:07:14 -74.52,-171.18 117.45 73.28 67
4 04/24/2018 05:01:15 -73.93, -81.08 118.94 04/24/2018 05:00:26 -73.92, -80.96 118.94 3.75 49
5 04/24/2018 05:50:43 73.95, 86.51 61.08 04/24/2018 05:51:05 73.94, 86.44 61.07 2.35 22
6 04/27/2018 00:35:26 -73.90, -14.57 119.89 04/27/2018 00:34:46 -73.92, -14.55 119.86 2.71 40
7 04/27/2018 01:24:55 73.97, 152.91 60.18 04/27/2018 01:25:24 73.99, 152.96 60.20 2.99 29
8 04/29/2018 20:09:39 -73.92, 51.81 120.74 04/29/2018 20:09:07 -73.92, 51.86 120.74 1.52 32
9 04/29/2018 20:59:08 73.99,-140.71 59.33 04/29/2018 20:59:45 73.99,-140.64 59.31 2.22 37
10 05/02/2018 15:43:51 -73.91, 118.30 121.61 05/02/2018 15:43:28 -73.92, 118.27 121.59 1.89 23
11 05/02/2018 16:33:20 73.98, -74.22 58.46 05/02/2018 16:34:06 73.98, -74.25 58.46 0.90 46




NCC Satellite Simultaneous Nadir Overpasses (SNOs) Prediction Service
